Location: *
(35.8942°N, 23.3025°E)
Time: 17:59:30
(UTC+00:00)

Gurwin Techsat 1B - Pass Details

Date: 01 April 2023
Orbit: 811 x 813 km, 98.9° (Epoch: 03 June)

Event Time Altitude Azimuth Distance (km) Brightness Sun altitude
Rises 02:03:11 0° 3° (N) 3,344 12.2 -26.1°
Reaches altitude 10° 02:05:41 10° 354° (N) 2,408 11.3 -25.7°
Enters shadow 02:09:18 31° 317° (NW) 1,386 9.6 -25.0°
